Flag for U.S.A. Weather past 2 weeks in San Buenaventura, California, U.S.A.

Now
62 °F

Clear.


Feels Like: 62 °F
Forecast: 62 / 75 °F
Wind: 6 mph from Northeast

Location: Oxnard Airport

Current Time: Sep 5, 2015 at 4:07:36 AM

Latest Report: Sep 5, 2015 at 2:51 AM


Visibility: 10 mi

Pressure: 29.87 "Hg

Humidity: 78%

Dew point: 55 °F

Location of San BuenaventuraLocation

Historic Weather in San Buenaventura — Graph

°F

San Buenaventura temperature yesterday

Maximum temperature yesterday: 76 °F (at 2:51 PM)
Minimum temperature yesterday: 62 °F (at 3:51 AM)
Average temperature yesterday: 69 °F

Past Weeks' High & Low Weather Summary

 TemperatureHumidityPressure
High86 °F (Aug 28, 12:51 PM)93% (Aug 26, 12:51 AM)29.98 "Hg (Aug 26, 12:51 AM)
Low62 °F (Aug 24, 6:51 AM)40% (Aug 28, 12:51 PM)29.80 "Hg (Aug 28, 6:51 PM)
Average71 °F75%29.89 "Hg
* Reported Aug 21 2:51 AM — Sep 5 2:51 AM, San Buenaventura, Weather by CustomWeather, © 2015

Note: Actual official high and low records may vary slightly from our data, if they occured in-between our weather recording intervals... More about our weather records

Advertising

San Buenaventura weather history for previous 24 hours

 ConditionsComfort  
Time TempWeatherWind HumidityBarometerVisibility
2:51 AM
Sat, Sep 5
62 °FClear.6 mph78%29.87 "Hg10 mi
1:51 AM63 °FClear.3 mph78%29.87 "Hg10 mi
12:51 AM64 °FClear.No wind78%29.87 "Hg10 mi
11:51 PM
Fri, Sep 4
66 °FClear.3 mph73%29.86 "Hg10 mi
10:51 PM67 °FClear.3 mph73%29.85 "Hg10 mi
9:51 PM67 °FClear.6 mph79%29.85 "Hg10 mi
8:51 PM68 °FClear.7 mph68%29.84 "Hg10 mi
7:51 PM68 °FSunny.9 mph68%29.84 "Hg10 mi
6:51 PM69 °FSunny.13 mph68%29.84 "Hg10 mi
5:51 PM71 °FSunny.15 mph66%29.84 "Hg10 mi
4:51 PM72 °FSunny.14 mph64%29.84 "Hg10 mi
3:51 PM74 °FSunny.14 mph62%29.84 "Hg10 mi
2:51 PM76 °FSunny.14 mph58%29.85 "Hg10 mi
1:51 PM75 °FSunny.14 mph55%29.86 "Hg10 mi
12:51 PM75 °FPartly sunny.12 mph55%29.88 "Hg10 mi
11:51 AM74 °FScattered clouds.7 mph57%29.88 "Hg10 mi
10:51 AM72 °FOvercast.7 mph61%29.90 "Hg10 mi
9:51 AM73 °FOvercast.5 mph51%29.88 "Hg10 mi
8:51 AM70 °FOvercast.7 mph59%29.88 "Hg10 mi
7:51 AM66 °FPartly sunny.7 mph70%29.88 "Hg10 mi
6:51 AM64 °FPassing clouds.8 mph73%29.86 "Hg10 mi
5:51 AM64 °FOvercast.6 mph75%29.85 "Hg10 mi
4:51 AM64 °FOvercast.7 mph75%29.84 "Hg10 mi
Weather by CustomWeather, © 2015

See weather overviewHow to use our weather pages